Clearfield, PA

3:30 PM EST on December 10, 2016 (GMT -0500)
Clearfield-Lawrence

Weather History for KFIG - January, 2013

Change the Weather History Date:

Thursday, January 31, 2013

  Actual Average (KDUJ) Record (KDUJ)
Temperature  
Mean Temperature 34 °F -  
Max Temperature 48 °F 31 °F 61 °F (2016)
Min Temperature 19 °F 16 °F -7 °F (1971)
Degree Days  
Heating Degree Days 32    
Moisture  
Dew Point 20 °F    
Average Humidity 76    
Maximum Humidity 93    
Minimum Humidity 54    
Precipitation  
Precipitation 0.21 in - - ()
Sea Level Pressure  
Sea Level Pressure 29.51 in    
Wind  
Wind Speed 17 mph (WSW)    
Max Wind Speed 30 mph    
Max Gust Speed 44 mph    
Visibility 4 miles    
Events Fog , Rain , Snow    
Averages and records for this station are not official NWS values.
T = Trace of Precipitation, MM = Missing Value Source: NWS Daily Summary

Daily Weather History Graph

Daily Weather History Graph

Search for Another Location

Airport or City:

Trip Planner

Search our weather history database for the weather conditions in past years. The results will help you decide how hot, cold, wet, or windy it might be!

Date:

Astronomy

Jan. 31, 2013 Rise Set
Actual Time 7:25 AM EST 5:29 PM EST
Civil Twilight 6:55 AM EST 5:58 PM EST
Nautical Twilight 6:22 AM EST 6:31 PM EST
Astronomical Twilight 5:50 AM EST 7:04 PM EST
Moon 10:33 PM EST (1/31) 9:20 AM EST (1/31)
Length of Visible Light 11h 02m
Length of Day
10h 04m
Waning Gibbous, 80% of the Moon is Illuminated
Jan 31
Waning Gibbous
Feb 3
Last Quarter
Feb 10
New
Feb 17
First Quarter
Feb 25
Full

Hourly Weather History & Observations

Time (EST) Temp. Windchill Dew Point Humidity Pressure Visibility Wind Dir Wind Speed Gust Speed Precip Events Conditions
12:50 AM 48.2 °F - 44.6 °F 87% 29.20 in 10.0 mi WSW 17.3 mph 29.9 mph 0.05 in Rain Light Rain
12:54 AM 48.0 °F - 44.1 °F 86% 29.20 in 10.0 mi WSW 18.4 mph 29.9 mph 0.05 in Rain Light Rain
1:54 AM 45.0 °F 38.9 °F 41.0 °F 86% 29.15 in 10.0 mi SSW 12.7 mph 18.4 mph 0.06 in Rain Light Rain
2:16 AM 42.8 °F 32.3 °F 37.4 °F 81% 29.22 in 5.0 mi WSW 29.9 mph 43.7 mph 0.03 in Rain Rain
2:54 AM 37.0 °F 26.4 °F 33.1 °F 86% 29.25 in 10.0 mi WSW 20.7 mph 29.9 mph 0.03 in Rain Light Rain
3:07 AM 35.6 °F 24.8 °F 32.0 °F 87% 29.24 in 10.0 mi WSW 19.6 mph 29.9 mph 0.00 in Rain Light Rain
3:49 AM 33.8 °F 22.2 °F 30.2 °F 87% 29.26 in 2.0 mi West 20.7 mph 29.9 mph 0.00 in Snow Light Snow
3:54 AM 33.1 °F 23.4 °F 30.9 °F 92% 29.28 in 1.0 mi West 13.8 mph 29.9 mph 0.01 in Snow Light Snow
3:56 AM 33.8 °F 22.5 °F 30.2 °F 87% 29.26 in 1.0 mi West 19.6 mph 29.9 mph 0.00 in Snow Light Snow
4:06 AM 33.8 °F 22.8 °F 30.2 °F 87% 29.28 in 2.0 mi West 18.4 mph 34.5 mph 0.00 in Snow Light Snow
4:15 AM 33.8 °F 21.9 °F 28.4 °F 81% 29.28 in 7.0 mi West 21.9 mph 33.4 mph 0.00 in Snow Light Snow
4:34 AM 33.8 °F 23.5 °F 26.6 °F 75% 29.29 in 10.0 mi West 16.1 mph 33.4 mph 0.00 in   Mostly Cloudy
4:54 AM 33.1 °F 23.4 °F 27.0 °F 78% 29.31 in 10.0 mi WSW 13.8 mph 24.2 mph 0.00 in   Overcast
5:28 AM 32.0 °F 22.1 °F 24.8 °F 75% 29.33 in 9.0 mi West 13.8 mph 35.7 mph 0.00 in   Overcast
5:42 AM 32.0 °F 22.5 °F 24.8 °F 75% 29.34 in 10.0 mi West 12.7 mph 21.9 mph 0.00 in   Overcast
5:54 AM 32.0 °F 24.2 °F 24.1 °F 73% 29.36 in 10.0 mi WSW 9.2 mph 26.5 mph 0.00 in   Overcast
6:28 AM 30.2 °F 15.9 °F 21.2 °F 69% 29.37 in 10.0 mi WSW 26.5 mph 40.3 mph 0.01 in   Overcast
6:54 AM 30.9 °F 21.2 °F 21.0 °F 67% 29.41 in 9.0 mi West 12.7 mph 29.9 mph 0.01 in   Overcast
7:54 AM 28.9 °F 18.6 °F 21.9 °F 75% 29.46 in 1.5 mi West 12.7 mph 27.6 mph 0.00 in Snow Light Snow
7:57 AM 28.4 °F 14.7 °F 21.2 °F 74% 29.44 in 0.8 mi West 21.9 mph 38.0 mph 0.00 in Snow Light Snow
8:18 AM 26.6 °F 13.1 °F 24.8 °F 93% 29.46 in 0.2 mi WSW 19.6 mph 26.5 mph 0.00 in Fog , Snow Heavy Snow
8:29 AM 26.6 °F 13.1 °F 24.8 °F 93% 29.46 in 0.2 mi West 19.6 mph 32.2 mph 0.01 in Fog , Snow Heavy Snow
8:34 AM 26.6 °F 15.2 °F 21.2 °F 80% 29.46 in 0.5 mi West 13.8 mph 33.4 mph 0.01 in Snow Snow
8:38 AM 26.6 °F 14.7 °F 21.2 °F 80% 29.47 in 2.5 mi WSW 15.0 mph 33.4 mph 0.01 in Snow Light Snow
8:41 AM 26.6 °F 15.2 °F 21.2 °F 80% 29.47 in 8.0 mi WSW 13.8 mph 24.2 mph 0.01 in   Mostly Cloudy
8:54 AM 28.0 °F 16.1 °F 21.0 °F 75% 29.50 in 9.0 mi WSW 16.1 mph 23.0 mph 0.01 in Snow Light Snow
9:03 AM 26.6 °F 13.4 °F 21.2 °F 80% 29.48 in 1.8 mi WSW 18.4 mph 26.5 mph 0.00 in Snow Light Snow
9:21 AM 26.6 °F 14.3 °F 21.2 °F 80% 29.48 in 0.5 mi WSW 16.1 mph 28.8 mph 0.00 in Snow Snow
9:27 AM 26.6 °F 14.3 °F 23.0 °F 86% 29.49 in 0.2 mi WSW 16.1 mph 27.6 mph 0.00 in Fog , Snow Heavy Snow
9:54 AM 25.0 °F 11.3 °F 23.0 °F 92% 29.53 in 0.2 mi WSW 18.4 mph 25.3 mph 0.03 in Fog , Snow Heavy Snow
10:01 AM 24.8 °F 14.6 °F 23.0 °F 93% 29.50 in 0.2 mi West 10.4 mph 24.2 mph 0.00 in Fog , Snow Snow
10:12 AM 26.6 °F 14.7 °F 21.2 °F 80% 29.51 in 1.0 mi WSW 15.0 mph 21.9 mph 0.00 in Snow Light Snow
10:17 AM 26.6 °F 15.2 °F 19.4 °F 74% 29.51 in 3.0 mi WSW 13.8 mph 25.3 mph 0.00 in Snow Light Snow
10:23 AM 26.6 °F 15.2 °F 19.4 °F 74% 29.51 in 2.0 mi WSW 13.8 mph 27.6 mph 0.00 in Snow Light Snow
10:30 AM 26.6 °F 16.2 °F 19.4 °F 74% 29.52 in 1.5 mi WSW 11.5 mph 28.8 mph 0.00 in Snow Light Snow
10:40 AM 26.6 °F 12.0 °F 17.6 °F 69% 29.52 in 2.0 mi West 23.0 mph 35.7 mph 0.01 in Snow Light Snow
10:43 AM 26.6 °F 12.0 °F 15.8 °F 64% 29.52 in 1.8 mi WSW 23.0 mph 40.3 mph 0.01 in Snow Light Snow
10:54 AM 26.1 °F 11.6 °F 15.1 °F 63% 29.55 in 1.0 mi West 21.9 mph 39.1 mph 0.01 in Snow Light Snow
11:00 AM 26.6 °F 13.8 °F 15.8 °F 64% 29.53 in 3.0 mi West 17.3 mph 32.2 mph 0.00 in   Overcast
11:54 AM 24.1 °F 10.1 °F 12.9 °F 62% 29.59 in 2.0 mi West 18.4 mph 35.7 mph 0.00 in Snow Light Snow
12:09 PM 24.8 °F 9.3 °F 10.4 °F 54% 29.57 in 4.0 mi West 24.2 mph 36.8 mph 0.00 in   Overcast
1:32 PM 24.8 °F 9.6 °F 14.0 °F 64% 29.58 in 1.8 mi WSW 23.0 mph 33.4 mph 0.00 in Snow Light Snow
1:39 PM 24.8 °F 12.4 °F 15.8 °F 69% 29.59 in 1.2 mi West 15.0 mph 33.4 mph 0.00 in Snow Light Snow
1:54 PM 24.1 °F 12.0 °F 16.0 °F 71% 29.62 in 1.8 mi WSW 13.8 mph 24.2 mph 0.00 in Snow Light Snow
2:04 PM 24.8 °F 15.3 °F 15.8 °F 69% 29.58 in 3.0 mi WSW 9.2 mph - 0.00 in Snow Light Snow
2:18 PM 24.8 °F 11.1 °F 15.8 °F 69% 29.59 in 1.8 mi West 18.4 mph 27.6 mph 0.00 in Snow Light Snow
2:29 PM 23.0 °F 10.1 °F 17.6 °F 80% 29.59 in 0.5 mi West 15.0 mph 31.1 mph 0.00 in Snow Snow
2:32 PM 23.0 °F 11.1 °F 17.6 °F 80% 29.59 in 0.2 mi WSW 12.7 mph 23.0 mph 0.00 in Snow Heavy Snow
2:51 PM 23.0 °F 8.0 °F 17.6 °F 80% 29.60 in 1.0 mi WSW 20.7 mph 31.1 mph 0.00 in Snow Light Snow
2:54 PM 24.1 °F 11.5 °F 16.0 °F 71% 29.64 in 1.2 mi West 15.0 mph 31.1 mph 0.00 in Snow Light Snow
2:59 PM 24.8 °F 10.7 °F 15.8 °F 69% 29.60 in 3.0 mi West 19.6 mph 31.1 mph 0.00 in Snow Light Snow
3:14 PM 23.0 °F 8.7 °F 14.0 °F 68% 29.62 in 0.5 mi West 18.4 mph 38.0 mph 0.00 in Snow Snow
3:25 PM 23.0 °F 8.0 °F 14.0 °F 68% 29.63 in 2.0 mi West 20.7 mph 31.1 mph 0.00 in Snow Light Snow
3:54 PM 21.0 °F 5.7 °F 14.0 °F 74% 29.71 in 0.8 mi West 19.6 mph 29.9 mph 0.00 in Snow Light Snow
4:06 PM 21.2 °F 6.4 °F 12.2 °F 68% 29.66 in 2.0 mi West 18.4 mph 29.9 mph 0.00 in Snow Light Snow
4:13 PM 21.2 °F 9.5 °F 12.2 °F 68% 29.66 in 4.0 mi West 11.5 mph 28.8 mph 0.00 in Snow Light Snow
4:20 PM 21.2 °F 7.3 °F 10.4 °F 63% 29.66 in 8.0 mi West 16.1 mph 28.8 mph 0.00 in   Overcast
4:49 PM 21.2 °F 7.3 °F 12.2 °F 68% 29.68 in 2.0 mi West 16.1 mph 24.2 mph 0.00 in Snow Light Snow
4:54 PM 19.9 °F 5.7 °F 12.9 °F 74% 29.74 in 1.0 mi WSW 16.1 mph 29.9 mph 0.00 in Snow Light Snow
5:02 PM 19.4 °F 5.0 °F 14.0 °F 80% 29.69 in 0.5 mi WSW 16.1 mph 29.9 mph 0.00 in Snow Snow
5:20 PM 19.4 °F 4.5 °F 14.0 °F 80% 29.70 in 2.0 mi West 17.3 mph 27.6 mph 0.00 in Snow Light Snow
5:27 PM 19.4 °F 3.2 °F 12.2 °F 74% 29.70 in 1.8 mi West 20.7 mph 34.5 mph 0.00 in Snow Light Snow
5:34 PM 21.2 °F 8.3 °F 10.4 °F 63% 29.71 in 3.0 mi West 13.8 mph 34.5 mph 0.00 in   Overcast
5:54 PM 19.9 °F 6.2 °F 10.9 °F 68% 29.77 in 7.0 mi WSW 15.0 mph 26.5 mph 0.00 in Snow Light Snow
6:31 PM 19.4 °F 7.2 °F 12.2 °F 74% 29.72 in 4.0 mi West 11.5 mph 19.6 mph 0.00 in Snow Light Snow
6:54 PM 19.9 °F 6.2 °F 12.0 °F 71% 29.78 in 9.0 mi WSW 15.0 mph 20.7 mph 0.00 in   Overcast
8:03 PM 19.4 °F 9.5 °F 12.2 °F 74% 29.73 in 4.0 mi WSW 8.1 mph - 0.00 in Snow Light Snow
8:37 PM 19.4 °F 8.6 °F 14.0 °F 80% 29.72 in 10.0 mi WSW 9.2 mph - 0.00 in   Overcast
9:54 PM 21.0 °F 8.6 °F 12.9 °F 71% 29.79 in 10.0 mi West 12.7 mph 20.7 mph 0.00 in   Overcast
11:54 PM 19.9 °F 7.3 °F 10.0 °F 65% 29.81 in 10.0 mi West 12.7 mph 21.9 mph N/A   Overcast